Weather History for LKNA - November, 2012

Change the Weather History Date:

Thursday, November 8, 2012

  Actual Average Record
Temperature  
Mean Temperature 44 °F -  
Max Temperature 48 °F - - ()
Min Temperature 41 °F - - ()
Degree Days  
Heating Degree Days 20    
Moisture  
Dew Point 40 °F    
Average Humidity 87    
Maximum Humidity 93    
Minimum Humidity 71    
Precipitation  
Precipitation 0.00 in - - ()
Sea Level Pressure  
Sea Level Pressure 30.13 in    
Wind  
Wind Speed 6 mph ()    
Max Wind Speed 10 mph    
Max Gust Speed -    
Visibility 6.2 miles    
Events      
T = Trace of Precipitation, MM = Missing Value Source: Averaged Metar Reports

Daily Weather History Graph

Daily Weather History Graph

Search for Another Location

Airport or City:

Trip Planner

Search our weather history database for the weather conditions in past years. The results will help you decide how hot, cold, wet, or windy it might be!

Date:

Astronomy

Nov. 08, 2012 Rise Set
Actual Time 6:54 AM CET 4:23 PM CET
Civil Twilight 6:20 AM CET 4:57 PM CET
Nautical Twilight 5:42 AM CET 5:35 PM CET
Astronomical Twilight 5:05 AM CET 6:12 PM CET
Moon No Moon Rise 1:23 PM CET (11/8)
Length of Visible Light 10h 36m
Length of Day
9h 28m
Waning Crescent, 35% of the Moon is Illuminated
Nov 8
Waning Crescent
Nov 13
New
Nov 20
First Quarter
Nov 28
Full
Dec 6
Last Quarter

Hourly Weather History & Observations

Time (CET) Temp. Windchill Dew Point Humidity Pressure Visibility Wind Dir Wind Speed Gust Speed Precip Events Conditions
12:00 AM 42.8 °F 37.5 °F 41.0 °F 93% 30.24 in 6.2 mi West 9.2 mph - N/A   Overcast
1:00 AM 42.8 °F 37.0 °F 41.0 °F 93% 30.24 in 6.2 mi West 10.4 mph - N/A   Overcast
2:00 AM 42.8 °F 37.5 °F 39.2 °F 87% 30.24 in 6.2 mi West 9.2 mph - N/A   Overcast
3:00 AM 42.8 °F 39.3 °F 39.2 °F 87% 30.24 in 6.2 mi WSW 5.8 mph - N/A   Overcast
4:00 AM 42.8 °F 40.1 °F 39.2 °F 87% 30.21 in 6.2 mi SW 4.6 mph - N/A   Overcast
5:00 AM 42.8 °F 39.3 °F 39.2 °F 87% 30.21 in 6.2 mi SW 5.8 mph - N/A   Overcast
6:00 AM 41.0 °F 39.0 °F 39.2 °F 93% 30.18 in 6.2 mi WSW 3.5 mph - N/A   Overcast
7:00 AM 42.8 °F 40.1 °F 39.2 °F 87% 30.18 in 6.2 mi SW 4.6 mph - N/A   Overcast
8:00 AM 42.8 °F 40.1 °F 39.2 °F 87% 30.18 in 6.2 mi WSW 4.6 mph - N/A   Mostly Cloudy
9:00 AM 42.8 °F 39.3 °F 39.2 °F 87% 30.18 in 6.2 mi SW 5.8 mph - N/A   Mostly Cloudy
10:00 AM 44.6 °F 42.2 °F 41.0 °F 87% 30.18 in 6.2 mi WSW 4.6 mph - N/A   Scattered Clouds
11:00 AM 46.4 °F 42.9 °F 39.2 °F 76% 30.15 in 6.2 mi SW 6.9 mph - N/A   Mostly Cloudy
12:00 PM 48.2 °F - 39.2 °F 71% 30.12 in 6.2 mi SSW 8.1 mph - N/A   Mostly Cloudy
1:00 PM 48.2 °F - 41.0 °F 76% 30.12 in 6.2 mi SW 8.1 mph - N/A   Mostly Cloudy
2:00 PM 48.2 °F - 41.0 °F 76% 30.09 in - South 4.6 mph - N/A   Clear
3:00 PM 46.4 °F 43.5 °F 42.8 °F 87% 30.09 in - South 5.8 mph - N/A   Clear
4:00 PM 44.6 °F 42.2 °F 41.0 °F 87% 30.06 in - South 4.6 mph - N/A   Clear
5:00 PM 42.8 °F 40.1 °F 39.2 °F 87% 30.04 in - South 4.6 mph - N/A   Clear
6:00 PM 42.8 °F 39.3 °F 39.2 °F 87% 30.04 in - South 5.8 mph - N/A   Clear
7:00 PM 42.8 °F - 41.0 °F 93% 30.04 in - South 2.3 mph - N/A   Clear
8:00 PM 41.0 °F 39.0 °F 39.2 °F 93% 30.04 in - SW 3.5 mph - N/A   Clear
9:00 PM 41.0 °F 36.4 °F 39.2 °F 93% 30.04 in - NW 6.9 mph - N/A   Clear
10:00 PM 41.0 °F 35.2 °F 39.2 °F 93% 30.04 in 6.2 mi WNW 9.2 mph - N/A   Mostly Cloudy
11:00 PM 41.0 °F 38.0 °F 39.2 °F 93% 30.04 in 6.2 mi WNW 4.6 mph - N/A   Mostly Cloudy